Flag for Spain Weather past 2 weeks in Sevilla, Spain

Now
77 °F

Clear.


Feels Like: 79 °F
Forecast: 66 / 97 °F
Wind: No wind

Location: Sevilla / San Pablo

Current Time: Aug 3, 2015 at 7:45:43 AM

Latest Report: Aug 3, 2015 at 7:00 AM


Visibility: 10 mi

Pressure: 29.92 "Hg

Humidity: 74%

Dew point: 68 °F

Location of SevillaLocation

Historic Weather in Sevilla — Graph

°F

Sevilla temperature yesterday

Maximum temperature yesterday: 100 °F (at 5:00 PM)
Minimum temperature yesterday: 68 °F (at 6:30 AM)
Average temperature yesterday: 86 °F

Past Weeks' High & Low Weather Summary

 TemperatureHumidityPressure
High104 °F (Jul 28, 3:30 PM)88% (Aug 1, 6:00 AM)30.04 "Hg (Aug 1, 6:00 AM)
Low66 °F (Jul 26, 6:30 AM)13% (Jul 23, 5:30 PM)29.77 "Hg (Jul 29, 6:30 PM)
Average85 °F42%29.89 "Hg
* Reported Jul 19 7:00 AM — Aug 3 7:00 AM, Sevilla, Weather by CustomWeather, © 2015

Note: Actual official high and low records may vary slightly from our data, if they occured in-between our weather recording intervals... More about our weather records

Advertising

Sevilla weather history for previous 24 hours

 ConditionsComfort  
Time TempWeatherWind HumidityBarometerVisibility
7:00 AM
Mon, Aug 3
77 °FClear.No wind74%29.92 "Hg10 mi
6:30 AM79 °FClear.No wind70%29.92 "Hg10 mi
6:00 AM79 °FClear.2 mph70%29.92 "Hg10 mi
5:30 AM79 °FPassing clouds.3 mph70%29.92 "HgN/A
5:00 AM79 °FClear.2 mph70%29.92 "Hg10 mi
4:30 AM81 °FClear.5 mph66%29.95 "Hg10 mi
4:00 AM81 °FPassing clouds.3 mph66%29.95 "HgN/A
3:30 AM81 °FPassing clouds.3 mph66%29.95 "HgN/A
2:00 AM82 °FPassing clouds.9 mph62%29.98 "HgN/A
1:30 AM82 °FClear.9 mph58%29.95 "Hg10 mi
1:00 AM84 °FPassing clouds.12 mph55%29.95 "HgN/A
12:30 AM84 °FPassing clouds.10 mph55%29.95 "HgN/A
12:00 AM86 °FClear.13 mph52%29.95 "Hg10 mi
11:30 PM
Sun, Aug 2
88 °FPassing clouds.9 mph49%29.92 "HgN/A
10:30 PM90 °FPassing clouds.13 mph43%29.89 "HgN/A
10:00 PM91 °FPassing clouds.13 mph41%29.86 "HgN/A
9:30 PM93 °FSunny.12 mph36%29.86 "Hg10 mi
9:00 PM95 °FSunny.9 mph34%29.86 "Hg10 mi
8:30 PM97 °FPassing clouds.8 mph28%29.86 "HgN/A
8:00 PM97 °FPassing clouds.6 mph28%29.86 "HgN/A
7:30 PM99 °FPassing clouds.7 mph27%29.86 "HgN/A
7:00 PM100 °FSunny.5 mph22%29.86 "Hg10 mi
6:30 PM100 °FSunny.3 mph21%29.86 "Hg10 mi
6:00 PM100 °FPassing clouds.7 mph22%29.86 "HgN/A
5:30 PM100 °FSunny.3 mph22%29.86 "Hg10 mi
5:00 PM100 °FPassing clouds.7 mph24%29.86 "HgN/A
4:30 PM99 °FSunny.3 mph25%29.86 "Hg10 mi
4:00 PM99 °FSunny.5 mph27%29.89 "Hg10 mi
3:30 PM97 °FSunny.1 mph25%29.89 "Hg10 mi
3:00 PM97 °FSunny.2 mph25%29.89 "Hg10 mi
2:30 PM95 °FPassing clouds.6 mph30%29.89 "HgN/A
2:00 PM95 °FSunny.2 mph30%29.92 "Hg10 mi
1:30 PM93 °FSunny.1 mph32%29.92 "Hg10 mi
1:00 PM93 °FSunny.3 mph34%29.92 "Hg10 mi
12:30 PM91 °FPassing clouds.5 mph36%29.92 "HgN/A
12:00 PM90 °FPassing clouds.7 mph41%29.92 "HgN/A
11:30 AM88 °FPassing clouds.8 mph46%29.92 "HgN/A
11:00 AM86 °FPassing clouds.9 mph46%29.92 "HgN/A
10:30 AM82 °FSunny.8 mph48%29.92 "Hg10 mi
10:00 AM81 °FPassing clouds.9 mph42%29.92 "HgN/A
9:30 AM77 °FSunny.9 mph44%29.92 "Hg10 mi
9:00 AM75 °FSunny.8 mph50%29.92 "Hg10 mi
8:30 AM72 °FSunny.7 mph57%29.89 "Hg10 mi
8:00 AM68 °FClear.7 mph64%29.89 "Hg10 mi
7:30 AM68 °FClear.2 mph64%29.89 "Hg10 mi
7:00 AM68 °FClear.No wind60%29.89 "Hg10 mi
Weather by CustomWeather, © 2015

See weather overviewHow to use our weather pages